[[{"header":{"parameterUnit":"m.s-1","parameterCategory":2,"la1":30.2991,"la2":30.254,"lo1":-89.0895,"lo2":-89.0444,"dy":0.0017,"dx":0.0017,"nx":28,"ny":28,"refTime":"2024-09-27T09:00:00:Z","depth":"0","parameterNumber":2,"parameterNumberName":"U-component_of_CURRENTS"},"data":[0,0,0,0,0,0,0,0,0,0,0,0,0,0,0,0,0,0,0,0,0,0,0,0,0,0,0,0,0,0,0,0,0,0,0,0,0,0,0,0,0,0,0,0,0,0,0,0,0,0,0,0,0,0,0,0,0,0,0.1824,0.1824,0,0.1836,0.1836,0.1836,0.1827,0.1826,0.1826,0.1826,0.1832,0.1832,0.1832,0,0,0,0,0,0,0,0,0,0,0,0,0,0.1808,0.1808,0.1824,0.1824,0.1824,0.1836,0.1836,0.1836,0.1827,0.1826,0.1826,0.1826,0.1831,0.1832,0.1832,0,0,0,0,0,0,0,0,0,0,0,0,0,0.1815,0.1808,0.1824,0.1823,0.1823,0.1836,0.1836,0.1836,0.1827,0.1826,0.1826,0.1826,0.1831,0.1832,0.1832,0.1842,0,0,0.1834,0.1834,0,0,0,0,0,0,0,0,0.1814,0.1815,0.1822,0.1823,0.1823,0.1831,0.1832,0.1838,0.1827,0.1823,0.1826,0.1826,0.1832,0.1833,0.1833,0.1842,0.1842,0.1834,0.1834,0.1834,0.1835,0,0,0,0,0,0,0,0.1814,0.1815,0.1826,0.1823,0.1823,0.1827,0.1827,0.1833,0.1828,0.1823,0.1823,0.1828,0.1832,0.1833,0.1833,0.1843,0.1834,0.1834,0.1835,0.1835,0.1873,0.1874,0,0,0,0,0,0,0.1816,0.1814,0.1826,0.1827,0.182,0.1828,0.1828,0.1827,0.1828,0.1828,0.1828,0.1828,0.1832,0.1833,0.1833,0.1855,0.1834,0.1835,0.1835,0.1873,0.1873,0.1874,0,0,0,0,0,0,0.1816,0.1817,0.1826,0.1823,0.1824,0.1828,0.1828,0.1828,0.1828,0.1832,0.1832,0.1829,0.1832,0.1833,0.1844,0.1854,0.1835,0.1836,0.1872,0.1873,0.1874,0.1891,0,0,0,0,0,0,0.1815,0.1816,0.1817,0.1823,0.1825,0.1833,0.1828,0.1828,0.1832,0.1831,0.1832,0.1832,0.1831,0.1843,0.1844,0.1855,0.1836,0.1871,0.1872,0.1873,0.1889,0.1892,0.1895,0,0,0,0,0,0.1814,0.1816,0.1817,0.1819,0.1825,0.1834,0.1835,0.1835,0.1833,0.1834,0.1838,0.1832,0.1852,0.1844,0.1845,0.1856,0.187,0.1872,0.1873,0.1888,0.1892,0.1895,0,0,0,0,0,0,0.1811,0.1816,0.1817,0.182,0.1827,0.1833,0.1836,0.1837,0.1841,0.184,0.1841,0.1842,0.1857,0.1855,0.1846,0.1872,0.1861,0.1863,0.1872,0.1875,0.1878,0.1879,0.1837,0,0,0,0,0,0.1812,0.1812,0.182,0.1823,0.1827,0.1832,0.1836,0.1837,0.1842,0.1843,0.1848,0.1854,0.1866,0.1868,0.1877,0.1889,0.1894,0.1898,0.19,0.1903,0.1905,0.193,0.1936,0.1879,0.1879,0.1879,0,0,0.1812,0.1815,0.1815,0.1822,0.1827,0.1836,0.1832,0.1839,0.1847,0.1844,0.1857,0.1865,0.1872,0.1888,0.1894,0.1886,0.1921,0.1905,0.1906,0.1908,0.1933,0.1938,0.1943,0.188,0.188,0.188,0,0,0.1814,0.1815,0.1816,0.1823,0.1833,0.1839,0.1841,0.185,0.1854,0.1869,0.1873,0.1887,0.19,0.1909,0.1915,0.1939,0.1937,0.1941,0.1952,0.1977,0.1982,0.1986,0.1995,0.2,0.1939,0.1939,0.1939,0,0.1816,0.1817,0.1819,0.1826,0.1834,0.1841,0.1849,0.1857,0.187,0.1883,0.1875,0.1912,0.1911,0.1939,0.1943,0.1945,0.1954,0.1937,0.198,0.1985,0.1989,0.1997,0.2002,0.194,0.194,0.194,0.194,0,0.182,0.1824,0.1827,0.1837,0.1846,0.1853,0.1867,0.188,0.1887,0.1902,0.1932,0.1937,0.196,0.1962,0.1956,0.1988,0.1984,0.1983,0.197,0.1995,0.2003,0.2008,0.1942,0.1941,0.1941,0.1941,0,0,0.1819,0.1827,0.1828,0.1833,0.1851,0.1857,0.1879,0.1904,0.1928,0.1941,0.1972,0.1986,0.1996,0.2003,0.2004,0.2016,0.2044,0.2009,0.2009,0.2015,0.2092,0.2094,0.2099,0.2054,0.2055,0.2056,0.2083,0,0.1822,0.183,0.1837,0.185,0.1857,0.1873,0.1896,0.1922,0.1947,0.198,0.1996,0.2025,0.2011,0.2022,0.2036,0.2049,0.206,0.2036,0.2069,0.207,0.2067,0.2106,0.2138,0.2166,0.2088,0.2089,0.209,0,0.1824,0.183,0.1838,0.1856,0.1862,0.1874,0.1914,0.1937,0.199,0.2012,0.2049,0.2064,0.2092,0.2071,0.2107,0.2094,0.2093,0.2095,0.2097,0.2097,0.2082,0.213,0.2178,0.2173,0.2098,0.2097,0.2096,0,0.1817,0.183,0.1833,0.1839,0.1865,0.1876,0.1897,0.1948,0.1976,0.2037,0.2064,0.2107,0.2125,0.2141,0.2145,0.213,0.2181,0.2162,0.2162,0.2161,0.2194,0.2194,0.224,0.2186,0.2185,0.2185,0.2185,0,0.1815,0.1819,0.1828,0.1831,0.1845,0.187,0.1903,0.1938,0.1995,0.2037,0.2077,0.2115,0.2143,0.2173,0.2169,0.2191,0.2205,0.2175,0.2177,0.2199,0.22,0.22,0.2173,0.2186,0.2186,0.2186,0.2186,0,0.1804,0.181,0.1814,0.1833,0.1839,0.185,0.1893,0.1922,0.1982,0.2036,0.2054,0.2129,0.2179,0.22,0.2234,0.2222,0.2186,0.2238,0.2254,0.2258,0.2243,0.2214,0.1989,0.1961,0.2244,0.2244,0.2245,0,0.1798,0.1796,0.1805,0.1804,0.1809,0.1831,0.1849,0.1909,0.1944,0.2044,0.2066,0.214,0.2199,0.2259,0.2278,0.2296,0.2195,0.2303,0.2278,0.2259,0.2229,0.1979,0.1955,0.2324,0.2325,0.2326,0.2327,0,0.1783,0.1783,0.1782,0.1782,0.1788,0.1799,0.183,0.1856,0.1934,0.1991,0.2076,0.2137,0.2235,0.2301,0.2333,0.2335,0.2213,0.2317,0.2308,0.2308,0.2028,0.1999,0.2272,0.2333,0.2333,0.2332,0.2332,0.2331,0.1767,0.1759,0.1754,0.1752,0.1754,0.1757,0.1759,0.1808,0.1861,0.1942,0.204,0.2131,0.2304,0.2378,0.2355,0.2383,0.2231,0.2367,0.2337,0.2083,0.2042,0.2317,0.2371,0.2371,0.2371,0.237,0.237,0,0.1741,0.1731,0.1725,0.1709,0.1693,0.1713,0.1733,0.1736,0.1778,0.1904,0.1986,0.2176,0.229,0.2381,0.248,0.2439,0.2253,0.2392,0.2108,0.2094,0.2399,0.24,0.2452,0.2452,0.2452,0.2452,0.2452,0.2452,0.1725,0.1702,0.1695,0.165,0.164,0.1607,0.1609,0.1629,0.1701,0.1818,0.1928,0.2034,0.2237,0.2386,0.2436,0.2421,0.2237,0.21,0.2039,0.237,0.2365,0.2361,0.2358,0.24,0.24,0.1671,0.1666,0.1663]},{"header":{"parameterUnit":"m.s-1","parameterCategory":2,"la1":30.2991,"la2":30.254,"lo1":-89.0895,"lo2":-89.0444,"dy":0.0017,"dx":0.0017,"nx":28,"ny":28,"refTime":"2024-09-27T09:00:00:Z","depth":"0","parameterNumber":3,"parameterNumberName":"V-component_of_CURRENTS"},"data":[0,0,0,0,0,0,0,0,0,0,0,0,0,0,0,0,0,0,0,0,0,0,0,0,0,0,0,0,0,0,0,0,0,0,0,0,0,0,0,0,0,0,0,0,0,0,0,0,0,0,0,0,0,0,0,0,0,0,0.0356,0.0356,0,0.0356,0.0356,0.0355,0.0337,0.0336,0.0336,0.0336,0.0309,0.0309,0.0309,0,0,0,0,0,0,0,0,0,0,0,0,0,0.0312,0.0313,0.0356,0.0356,0.0356,0.0356,0.0356,0.0355,0.0337,0.0336,0.0336,0.0336,0.031,0.0309,0.0309,0,0,0,0,0,0,0,0,0,0,0,0,0,0.0322,0.0313,0.0356,0.0349,0.0348,0.0356,0.0356,0.0355,0.0337,0.0336,0.0336,0.0335,0.031,0.0309,0.0309,0.0313,0,0,0.0307,0.0306,0,0,0,0,0,0,0,0,0.0321,0.0323,0.035,0.0349,0.0349,0.0348,0.0331,0.0341,0.0337,0.0339,0.0336,0.0335,0.0322,0.032,0.0318,0.0312,0.0311,0.0306,0.0306,0.0306,0.0306,0,0,0,0,0,0,0,0.032,0.0323,0.0354,0.035,0.0349,0.0336,0.0337,0.0332,0.033,0.0339,0.0338,0.0341,0.0321,0.0319,0.0317,0.031,0.0307,0.0306,0.0306,0.0305,0.0301,0.0301,0,0,0,0,0,0,0.0327,0.0322,0.0354,0.0354,0.0336,0.0337,0.0338,0.0347,0.0331,0.0329,0.0342,0.0341,0.032,0.0318,0.0316,0.0327,0.0306,0.0305,0.0305,0.0301,0.0301,0.0302,0,0,0,0,0,0,0.0326,0.033,0.0354,0.0339,0.0342,0.0339,0.0348,0.0347,0.0344,0.0334,0.0331,0.034,0.032,0.0317,0.0318,0.0325,0.0305,0.0304,0.0301,0.0301,0.0301,0.0344,0,0,0,0,0,0,0.0325,0.033,0.0337,0.034,0.0343,0.0362,0.0349,0.0347,0.0348,0.0346,0.0332,0.0329,0.0319,0.0319,0.0317,0.0324,0.0304,0.03,0.0301,0.0301,0.0342,0.0345,0.0348,0,0,0,0,0,0.0324,0.0339,0.0337,0.0341,0.0353,0.0363,0.0363,0.0357,0.0349,0.0351,0.0344,0.033,0.0321,0.0319,0.0317,0.0323,0.03,0.0301,0.0301,0.034,0.0345,0.0348,0,0,0,0,0,0,0.0322,0.0338,0.0337,0.0355,0.0359,0.036,0.0365,0.0359,0.0355,0.0353,0.0338,0.0335,0.0336,0.0324,0.0323,0.0323,0.0306,0.0306,0.0337,0.0341,0.0344,0.0353,0.0303,0,0,0,0,0,0.0326,0.0342,0.035,0.0364,0.0368,0.0366,0.0368,0.0365,0.0364,0.0361,0.0355,0.0345,0.0338,0.0335,0.0328,0.0332,0.0312,0.0332,0.0336,0.0339,0.0344,0.0322,0.0324,0.0304,0.0304,0.0304,0,0,0.0329,0.0341,0.0348,0.0364,0.0367,0.0384,0.0365,0.0374,0.0384,0.036,0.0371,0.0357,0.0341,0.0345,0.0344,0.0336,0.0333,0.0339,0.0342,0.0346,0.0323,0.0325,0.0326,0.0304,0.0304,0.0304,0,0,0.0346,0.0353,0.0372,0.0381,0.0392,0.0395,0.0399,0.0404,0.04,0.0408,0.0392,0.0385,0.0378,0.037,0.0362,0.0379,0.0351,0.0374,0.04,0.0379,0.038,0.0381,0.0356,0.0355,0.0376,0.0376,0.0376,0,0.0347,0.0376,0.0377,0.0399,0.0412,0.0403,0.0426,0.0425,0.0428,0.0431,0.0417,0.0406,0.039,0.0392,0.0397,0.0387,0.0369,0.0388,0.0383,0.0384,0.0384,0.0359,0.0356,0.0378,0.0378,0.0378,0.0378,0,0.038,0.0403,0.0416,0.0444,0.0455,0.0473,0.0477,0.0482,0.0476,0.0476,0.0475,0.0451,0.0445,0.0435,0.0421,0.0419,0.0403,0.039,0.0375,0.0389,0.0361,0.0358,0.0381,0.0381,0.038,0.038,0,0,0.0387,0.0431,0.0436,0.046,0.0482,0.0498,0.0513,0.053,0.0546,0.0531,0.0543,0.052,0.0505,0.0495,0.0472,0.0451,0.0434,0.0426,0.0424,0.0404,0.0384,0.0388,0.0385,0.042,0.042,0.042,0.0362,0,0.0413,0.0466,0.0479,0.0528,0.0556,0.0557,0.0578,0.0588,0.0588,0.0598,0.0562,0.0566,0.0528,0.0525,0.0498,0.0455,0.0428,0.045,0.037,0.0368,0.0373,0.0383,0.0448,0.0404,0.0359,0.0358,0.0358,0,0.0443,0.0478,0.0531,0.058,0.0592,0.0617,0.0651,0.067,0.0674,0.0672,0.066,0.0635,0.0607,0.0568,0.0494,0.051,0.0451,0.0408,0.0405,0.0394,0.0367,0.0382,0.04,0.0367,0.0353,0.0353,0.0354,0,0.0457,0.0514,0.0561,0.0578,0.0629,0.0648,0.0673,0.0693,0.0721,0.0722,0.0733,0.0692,0.0676,0.0599,0.051,0.0501,0.0423,0.0398,0.0342,0.0341,0.0374,0.0377,0.0355,0.0338,0.0338,0.0339,0.0339,0,0.0486,0.0522,0.0573,0.0601,0.0658,0.0679,0.0737,0.075,0.078,0.0828,0.0775,0.0793,0.0684,0.0626,0.0531,0.0436,0.0437,0.035,0.033,0.039,0.0395,0.0348,0.0324,0.0336,0.0337,0.0337,0.0338,0,0.0495,0.0529,0.0587,0.0646,0.0669,0.071,0.0785,0.083,0.0844,0.0899,0.0901,0.0869,0.0803,0.0683,0.0565,0.0475,0.0374,0.0336,0.0413,0.0403,0.0321,0.0297,0.0272,0.0284,0.0266,0.0265,0.0265,0,0.0506,0.0539,0.0619,0.0662,0.0692,0.0759,0.0813,0.0859,0.0917,0.0957,0.0989,0.0938,0.0933,0.0754,0.0594,0.0431,0.0385,0.0368,0.036,0.0332,0.0289,0.0295,0.0307,0.0414,0.0416,0.0416,0.0417,0,0.0526,0.0555,0.0606,0.0697,0.0762,0.0845,0.0925,0.0983,0.1047,0.1099,0.1161,0.1158,0.0995,0.0893,0.0664,0.0535,0.0397,0.0381,0.0337,0.0396,0.0417,0.0414,0.0428,0.0425,0.0424,0.0424,0.0423,0.0423,0.0539,0.0579,0.0653,0.074,0.082,0.0928,0.1015,0.1111,0.1224,0.1342,0.1316,0.1387,0.1218,0.0928,0.0708,0.0443,0.0444,0.0395,0.0363,0.0368,0.0402,0.0431,0.0414,0.0413,0.0413,0.0412,0.0411,0,0.0557,0.0614,0.0695,0.0808,0.0904,0.0946,0.1094,0.1205,0.1361,0.15,0.1579,0.1646,0.1386,0.1096,0.0726,0.0507,0.0428,0.0393,0.0423,0.043,0.0445,0.0476,0.0491,0.0491,0.0491,0.0491,0.0491,0.0491,0.057,0.065,0.0701,0.0863,0.0948,0.1106,0.1205,0.1373,0.1529,0.1796,0.1961,0.2056,0.198,0.119,0.0712,0.0541,0.0437,0.0392,0.0334,0.0342,0.034,0.0338,0.0361,0.0352,0.0352,0.0387,0.0387,0.0387]}],[{"header":{"parameterUnit":"m.s-1","parameterCategory":2,"la1":30.2991,"la2":30.254,"lo1":-89.0895,"lo2":-89.0444,"dy":0.0017,"dx":0.0017,"nx":28,"ny":28,"refTime":"2024-09-27T09:00:00:Z","depth":"2","parameterNumber":2,"parameterNumberName":"U-component_of_CURRENTS"},"data":[0,0,0,0,0,0,0,0,0,0,0,0,0,0,0,0,0,0,0,0,0,0,0,0,0,0,0,0,0,0,0,0,0,0,0,0,0,0,0,0,0,0,0,0,0,0,0,0,0,0,0,0,0,0,0,0,0,0,0.1712,0.1712,0,0.1724,0.1724,0.1724,0.1717,0.1717,0.1717,0.1717,0.1724,0.1724,0.1725,0,0,0,0,0,0,0,0,0,0,0,0,0,0.1696,0.1696,0.1712,0.1712,0.1713,0.1724,0.1724,0.1724,0.1717,0.1717,0.1717,0.1717,0.1724,0.1724,0.1725,0,0,0,0,0,0,0,0,0,0,0,0,0,0.1703,0.1696,0.1712,0.1712,0.1713,0.1724,0.1724,0.1724,0.1717,0.1717,0.1717,0.1717,0.1724,0.1724,0.1725,0.1732,0,0,0.1726,0.1726,0,0,0,0,0,0,0,0,0.1702,0.1703,0.1712,0.1712,0.1713,0.1721,0.1721,0.1727,0.1717,0.1713,0.1717,0.1717,0.1724,0.1725,0.1724,0.1732,0.1732,0.1726,0.1727,0.1727,0.1727,0,0,0,0,0,0,0,0.1702,0.1703,0.1715,0.1712,0.1713,0.1716,0.1717,0.1722,0.1718,0.1714,0.1714,0.1719,0.1724,0.1724,0.1724,0.1732,0.1726,0.1727,0.1727,0.1727,0.1765,0.1766,0,0,0,0,0,0,0.1704,0.1702,0.1714,0.1715,0.1709,0.1717,0.1717,0.1717,0.1718,0.1719,0.1719,0.1718,0.1723,0.1724,0.1725,0.1748,0.1727,0.1727,0.1728,0.1764,0.1765,0.1766,0,0,0,0,0,0,0.1704,0.1705,0.1714,0.1711,0.1713,0.1718,0.1717,0.1717,0.1719,0.1722,0.1722,0.1721,0.1723,0.1724,0.1736,0.1747,0.1727,0.1728,0.1763,0.1764,0.1765,0.1785,0,0,0,0,0,0,0.1703,0.1705,0.1707,0.1711,0.1713,0.1722,0.1717,0.1718,0.1723,0.1723,0.1724,0.1725,0.1723,0.1735,0.1736,0.1748,0.1728,0.1762,0.1764,0.1765,0.1783,0.1786,0.1789,0,0,0,0,0,0.1703,0.1705,0.1706,0.1708,0.1714,0.1722,0.1723,0.1725,0.1724,0.1725,0.1731,0.1725,0.1745,0.1736,0.1737,0.1749,0.1762,0.1763,0.1765,0.1782,0.1785,0.1789,0,0,0,0,0,0,0.1701,0.1705,0.1706,0.171,0.1717,0.1722,0.1726,0.1727,0.1732,0.1733,0.1733,0.1734,0.1751,0.1748,0.1739,0.1765,0.1753,0.1755,0.1765,0.1769,0.1772,0.1773,0.1729,0,0,0,0,0,0.1702,0.1702,0.171,0.1714,0.1717,0.1722,0.1727,0.1728,0.1734,0.1735,0.1741,0.1747,0.1758,0.1761,0.177,0.1781,0.1786,0.1791,0.1794,0.1796,0.1798,0.1823,0.1828,0.1771,0.1771,0.1771,0,0,0.1703,0.1706,0.1706,0.1713,0.1718,0.1727,0.1723,0.1731,0.174,0.1736,0.1751,0.1759,0.1765,0.1781,0.1788,0.1779,0.1814,0.1798,0.18,0.1801,0.1825,0.1831,0.1836,0.1772,0.1772,0.1772,0,0,0.1706,0.1708,0.1709,0.1716,0.1726,0.1731,0.1735,0.1744,0.1748,0.1764,0.1767,0.1783,0.1795,0.1804,0.1809,0.1833,0.1831,0.1836,0.1848,0.1872,0.1877,0.1881,0.189,0.1895,0.1834,0.1834,0.1834,0,0.1709,0.171,0.1713,0.172,0.1727,0.1734,0.1743,0.175,0.1764,0.1777,0.1771,0.1807,0.1807,0.1833,0.1838,0.1839,0.1849,0.1833,0.1876,0.188,0.1884,0.1893,0.1898,0.1835,0.1835,0.1835,0.1835,0,0.1713,0.1718,0.1721,0.1731,0.174,0.1748,0.1761,0.1774,0.1783,0.1798,0.1829,0.1834,0.1856,0.1858,0.1852,0.1885,0.188,0.1879,0.1865,0.1891,0.1898,0.1904,0.1837,0.1836,0.1836,0.1836,0,0,0.1714,0.1722,0.1724,0.1728,0.1746,0.1752,0.1774,0.1798,0.1822,0.1837,0.1868,0.1882,0.1893,0.19,0.19,0.1913,0.1942,0.1906,0.1906,0.1912,0.1989,0.1989,0.1994,0.1951,0.1952,0.1953,0.1981,0,0.1718,0.1726,0.1732,0.1745,0.1752,0.1768,0.179,0.1816,0.1841,0.1875,0.1891,0.192,0.1907,0.192,0.1933,0.1946,0.1957,0.1934,0.1965,0.1966,0.1961,0.2001,0.1836,0.1848,0.1986,0.1987,0.1987,0,0.1721,0.1726,0.1734,0.1752,0.1758,0.177,0.181,0.1832,0.1885,0.1908,0.1945,0.1961,0.1988,0.1969,0.2004,0.1992,0.1991,0.1993,0.1994,0.1992,0.1976,0.1846,0.1852,0.1996,0.1995,0.1994,0.1994,0,0.1715,0.1728,0.1731,0.1737,0.1761,0.1773,0.1794,0.1845,0.1873,0.1934,0.1961,0.2004,0.2023,0.2039,0.2043,0.2029,0.2078,0.2059,0.2057,0.2057,0.1921,0.1907,0.2083,0.2083,0.2083,0.2082,0.2082,0,0.1714,0.1719,0.1727,0.173,0.1745,0.177,0.1803,0.1838,0.1894,0.1936,0.1976,0.2014,0.2042,0.2071,0.2067,0.2087,0.2102,0.207,0.2072,0.1923,0.191,0.204,0.2035,0.2083,0.2083,0.2083,0.2083,0,0.1705,0.1711,0.1715,0.1733,0.174,0.1753,0.1796,0.1824,0.1884,0.1938,0.1957,0.2029,0.2079,0.21,0.2132,0.2119,0.2135,0.2132,0.1953,0.1935,0.2086,0.2081,0.2136,0.2136,0.2136,0.2137,0.2137,0,0.1699,0.1698,0.1708,0.1708,0.1713,0.1737,0.1755,0.1814,0.1847,0.1947,0.1968,0.2041,0.2094,0.2151,0.2129,0.2134,0.216,0.1991,0.1938,0.2099,0.2096,0.209,0.2085,0.1753,0.1751,0.1748,0.1746,0,0.1686,0.1687,0.1686,0.1688,0.1695,0.1705,0.1737,0.1762,0.1839,0.1891,0.1973,0.2029,0.2087,0.2038,0.2051,0.2024,0.198,0.1946,0.2159,0.1783,0.1746,0.174,0.1746,0.1725,0.1727,0.1729,0.173,0.1731,0.1672,0.1664,0.166,0.1659,0.1663,0.1665,0.1666,0.1699,0.1745,0.1785,0.1898,0.1908,0.1941,0.1882,0.1827,0.1767,0.1909,0.1817,0.1821,0.1828,0.1796,0.1764,0.1739,0.1741,0.1742,0.1744,0.1746,0,0.1639,0.1638,0.1632,0.1617,0.1592,0.1623,0.1642,0.1609,0.1625,0.1675,0.1721,0.1598,0.1589,0.1603,0.1492,0.1511,0.1442,0.1443,0.1339,0.1365,0.1386,0.1326,0.1147,0.1144,0.1142,0.114,0,0,0.1621,0.1595,0.1588,0.1539,0.1537,0.1486,0.1486,0.1446,0.1443,0.1404,0.139,0.1494,0.1576,0.1332,0.1318,0.1218,0.1265,0.1158,0.1648,0.1553,0.157,0.1625,0.1567,0,0,0,0,0]},{"header":{"parameterUnit":"m.s-1","parameterCategory":2,"la1":30.2991,"la2":30.254,"lo1":-89.0895,"lo2":-89.0444,"dy":0.0017,"dx":0.0017,"nx":28,"ny":28,"refTime":"2024-09-27T09:00:00:Z","depth":"2","parameterNumber":3,"parameterNumberName":"V-component_of_CURRENTS"},"data":[0,0,0,0,0,0,0,0,0,0,0,0,0,0,0,0,0,0,0,0,0,0,0,0,0,0,0,0,0,0,0,0,0,0,0,0,0,0,0,0,0,0,0,0,0,0,0,0,0,0,0,0,0,0,0,0,0,0,0.0345,0.0345,0,0.0344,0.0344,0.0344,0.0326,0.0326,0.0326,0.0325,0.03,0.0299,0.0299,0,0,0,0,0,0,0,0,0,0,0,0,0,0.0302,0.0303,0.0345,0.0345,0.0345,0.0344,0.0344,0.0344,0.0326,0.0326,0.0326,0.0325,0.03,0.0299,0.0299,0,0,0,0,0,0,0,0,0,0,0,0,0,0.0311,0.0303,0.0345,0.0338,0.0337,0.0344,0.0344,0.0343,0.0326,0.0326,0.0326,0.0325,0.03,0.0299,0.0298,0.0302,0,0,0.0296,0.0296,0,0,0,0,0,0,0,0,0.0311,0.0312,0.0339,0.0338,0.0338,0.0337,0.0319,0.0329,0.0326,0.0328,0.0325,0.0325,0.0311,0.031,0.0308,0.0301,0.0299,0.0296,0.0296,0.0296,0.0295,0,0,0,0,0,0,0,0.031,0.0312,0.0342,0.0339,0.0339,0.0325,0.0326,0.0321,0.032,0.0328,0.0327,0.0331,0.0311,0.0308,0.0307,0.0299,0.0296,0.0296,0.0295,0.0295,0.0289,0.0289,0,0,0,0,0,0,0.0317,0.0312,0.0342,0.0342,0.0325,0.0327,0.0327,0.0336,0.032,0.0318,0.0331,0.033,0.031,0.0308,0.0306,0.0315,0.0296,0.0295,0.0295,0.0289,0.0289,0.0289,0,0,0,0,0,0,0.0316,0.032,0.0342,0.0328,0.0331,0.0328,0.0337,0.0336,0.0333,0.0323,0.032,0.033,0.0309,0.0307,0.0307,0.0314,0.0295,0.0294,0.0288,0.0289,0.0289,0.033,0,0,0,0,0,0,0.0315,0.0319,0.0326,0.0329,0.0332,0.035,0.0338,0.0336,0.0337,0.0336,0.0322,0.0319,0.0309,0.0308,0.0306,0.0313,0.0293,0.0288,0.0288,0.0289,0.0329,0.0332,0.0335,0,0,0,0,0,0.0313,0.0328,0.0326,0.033,0.0342,0.0351,0.035,0.0345,0.0338,0.034,0.0333,0.0319,0.0309,0.0308,0.0306,0.0312,0.0288,0.0288,0.0289,0.0327,0.0331,0.0335,0,0,0,0,0,0,0.0312,0.0327,0.0326,0.0344,0.0348,0.0348,0.0353,0.0347,0.0343,0.0342,0.0326,0.0324,0.0325,0.0313,0.0312,0.0311,0.0295,0.0295,0.0325,0.0328,0.0331,0.0341,0.0293,0,0,0,0,0,0.0316,0.0331,0.0339,0.0352,0.0356,0.0354,0.0356,0.0353,0.0352,0.0349,0.0343,0.0333,0.0326,0.0323,0.0316,0.0319,0.0299,0.0319,0.0322,0.0325,0.033,0.0307,0.0309,0.0291,0.0291,0.0291,0,0,0.0318,0.0329,0.0337,0.0352,0.0355,0.0371,0.0354,0.0362,0.0372,0.0348,0.0359,0.0345,0.0329,0.0332,0.0331,0.0323,0.0319,0.0326,0.0328,0.0332,0.0308,0.031,0.0311,0.0291,0.0291,0.0291,0,0,0.0334,0.0341,0.036,0.0368,0.0379,0.0382,0.0386,0.039,0.0387,0.0395,0.0379,0.0371,0.0364,0.0355,0.0348,0.0364,0.0336,0.0359,0.0384,0.0362,0.0363,0.0364,0.034,0.0338,0.0361,0.0361,0.0361,0,0.0335,0.0364,0.0365,0.0386,0.0399,0.039,0.0413,0.0411,0.0414,0.0417,0.0403,0.0392,0.0375,0.0377,0.0381,0.0371,0.0353,0.0373,0.0367,0.0367,0.0367,0.0342,0.0339,0.0363,0.0363,0.0363,0.0362,0,0.0367,0.039,0.0402,0.043,0.044,0.0458,0.0462,0.0467,0.0461,0.0461,0.0459,0.0435,0.0428,0.0418,0.0405,0.0402,0.0386,0.0373,0.0359,0.0372,0.0344,0.0341,0.0366,0.0365,0.0365,0.0364,0,0,0.0373,0.0417,0.0422,0.0445,0.0467,0.0482,0.0497,0.0513,0.0529,0.0513,0.0525,0.0502,0.0487,0.0477,0.0454,0.0433,0.0414,0.0408,0.0406,0.0387,0.0364,0.0367,0.0363,0.0401,0.04,0.04,0.0343,0,0.0399,0.0451,0.0464,0.0511,0.0539,0.054,0.056,0.0569,0.0569,0.0579,0.0542,0.0546,0.0509,0.0506,0.0479,0.0436,0.0409,0.0431,0.0351,0.0349,0.0353,0.0361,0.0359,0.0309,0.0339,0.0339,0.0339,0,0.0428,0.0462,0.0515,0.0563,0.0575,0.0599,0.0632,0.065,0.0653,0.0651,0.0639,0.0613,0.0585,0.0547,0.0472,0.0489,0.0431,0.0388,0.0385,0.0373,0.0347,0.03,0.0302,0.0333,0.0333,0.0334,0.0334,0,0.0443,0.0498,0.0545,0.0561,0.0611,0.063,0.0654,0.0673,0.07,0.07,0.071,0.0669,0.0653,0.0576,0.0487,0.0479,0.04,0.0375,0.032,0.0319,0.0294,0.0292,0.0316,0.0316,0.0316,0.0316,0.0316,0,0.047,0.0506,0.0557,0.0584,0.064,0.066,0.0717,0.073,0.0758,0.0804,0.0752,0.0768,0.0659,0.0601,0.0507,0.0412,0.0412,0.0328,0.0307,0.0308,0.0308,0.0311,0.0312,0.0314,0.0315,0.0315,0.0315,0,0.048,0.0513,0.0571,0.0629,0.0652,0.0692,0.0766,0.0809,0.0823,0.0875,0.0877,0.0843,0.0774,0.0656,0.0538,0.0449,0.0349,0.0311,0.0321,0.0303,0.0273,0.0276,0.0241,0.024,0.024,0.024,0.024,0,0.0491,0.0523,0.0603,0.0646,0.0675,0.0741,0.0794,0.0839,0.0894,0.093,0.0961,0.0908,0.0898,0.0718,0.0547,0.0382,0.0359,0.027,0.0255,0.0284,0.0267,0.027,0.0273,0.0229,0.0229,0.0229,0.0229,0,0.0511,0.0539,0.059,0.068,0.0745,0.0826,0.0904,0.0961,0.1021,0.1068,0.1124,0.1115,0.094,0.079,0.0556,0.0431,0.0297,0.0262,0.0286,0.026,0.0271,0.0256,0.0259,0.0227,0.0227,0.0227,0.0227,0.0227,0.0524,0.0563,0.0637,0.0723,0.0802,0.0907,0.0993,0.1075,0.1179,0.1261,0.1243,0.1235,0.1028,0.0745,0.0523,0.0285,0.0306,0.0217,0.0218,0.0219,0.0239,0.0251,0.0206,0.0206,0.0206,0.0206,0.0206,0,0.0541,0.0599,0.0679,0.079,0.0881,0.0926,0.107,0.1155,0.1287,0.135,0.1395,0.1201,0.1011,0.0771,0.0433,0.0233,0.019,0.0151,0.0152,0.0156,0.0159,0.0176,0.0125,0.0124,0.0123,0.0123,0,0,0.0553,0.0631,0.0682,0.0838,0.0924,0.1068,0.1164,0.1282,0.1366,0.1445,0.1449,0.1386,0.1107,0.0841,0.0548,0.0357,0.0298,0.0294,0.0382,0.0423,0.0428,0.0218,0.0252,0,0,0,0,0]}],[{"header":{"parameterUnit":"m.s-1","parameterCategory":2,"la1":30.2991,"la2":30.254,"lo1":-89.0895,"lo2":-89.0444,"dy":0.0017,"dx":0.0017,"nx":28,"ny":28,"refTime":"2024-09-27T09:00:00:Z","depth":"4","parameterNumber":2,"parameterNumberName":"U-component_of_CURRENTS"},"data":[0,0,0,0,0,0,0,0,0,0,0,0,0,0,0,0,0,0,0,0,0,0,0,0,0,0,0,0,0,0,0,0,0,0,0,0,0,0,0,0,0,0,0,0,0,0,0,0,0,0,0,0,0,0,0,0,0,0,0.0926,0.0927,0,0.0957,0.0957,0.0957,0.0985,0.0986,0.0986,0.0987,0.1031,0.1032,0.1032,0,0,0,0,0,0,0,0,0,0,0,0,0,0.0889,0.089,0.0926,0.0927,0.0927,0.0957,0.0957,0.0957,0.0985,0.0986,0.0987,0.0987,0.1031,0.1031,0.1032,0,0,0,0,0,0,0,0,0,0,0,0,0,0.0909,0.089,0.0926,0.0946,0.0948,0.0957,0.0957,0.0957,0.0985,0.0986,0.0987,0.0987,0.103,0.1031,0.1032,0.1024,0,0,0.1036,0.1036,0,0,0,0,0,0,0,0,0.0908,0.0911,0.0943,0.0945,0.0947,0.097,0.096,0.0981,0.0985,0.0969,0.0987,0.0988,0.1012,0.1015,0.1016,0.1026,0.1028,0.1036,0.1036,0.1037,0.1037,0,0,0,0,0,0,0,0.0907,0.0909,0.0937,0.0943,0.0946,0.0953,0.0956,0.0964,0.0985,0.0971,0.0973,0.0979,0.1013,0.1015,0.1017,0.1028,0.1036,0.1037,0.1037,0.1038,0.1107,0.1108,0,0,0,0,0,0,0.0906,0.0908,0.0936,0.0938,0.0931,0.0953,0.0957,0.096,0.0985,0.099,0.0979,0.098,0.1013,0.1016,0.1019,0.1077,0.1037,0.1038,0.1038,0.1106,0.1107,0.1108,0,0,0,0,0,0,0.0905,0.0908,0.0935,0.0925,0.0929,0.0953,0.0957,0.0961,0.0986,0.0991,0.0996,0.1003,0.1014,0.1018,0.105,0.1076,0.1038,0.1039,0.1104,0.1106,0.1108,0.115,0,0,0,0,0,0,0.0904,0.0907,0.092,0.0925,0.093,0.0953,0.0956,0.0961,0.0987,0.0991,0.1013,0.1016,0.1015,0.1049,0.1051,0.1077,0.104,0.1103,0.1105,0.1107,0.1147,0.1153,0.1158,0,0,0,0,0,0.0902,0.0912,0.092,0.0925,0.0943,0.0953,0.0957,0.0974,0.0988,0.1,0.1021,0.1017,0.1065,0.105,0.1053,0.108,0.1102,0.1104,0.1107,0.1144,0.1151,0.1157,0,0,0,0,0,0,0.0904,0.0916,0.0925,0.094,0.0953,0.0959,0.0976,0.0987,0.1012,0.1025,0.1029,0.1034,0.1074,0.1071,0.1055,0.1107,0.1084,0.1087,0.1111,0.1118,0.1123,0.1124,0.1041,0,0,0,0,0,0.091,0.0922,0.0932,0.0947,0.0956,0.0971,0.0983,0.0995,0.1012,0.1025,0.1043,0.1064,0.1082,0.1096,0.111,0.1136,0.1133,0.1156,0.1162,0.1166,0.1169,0.1193,0.1201,0.1117,0.1117,0.1117,0,0,0.0916,0.0925,0.0933,0.095,0.0963,0.0978,0.098,0.1004,0.1024,0.1025,0.1069,0.1086,0.1094,0.1127,0.1144,0.1131,0.1189,0.117,0.1173,0.1174,0.1197,0.1205,0.1212,0.1119,0.1119,0.1119,0,0,0.0925,0.0942,0.0954,0.0967,0.0991,0.0999,0.1011,0.1034,0.1054,0.109,0.11,0.1134,0.1162,0.1174,0.1181,0.1225,0.1218,0.1235,0.1263,0.1286,0.1293,0.1299,0.1303,0.1309,0.1236,0.1236,0.1237,0,0.0936,0.0947,0.096,0.0974,0.099,0.1011,0.1029,0.1048,0.1083,0.1107,0.1113,0.1175,0.1183,0.122,0.1237,0.1237,0.1245,0.1236,0.1293,0.1299,0.1304,0.1307,0.1313,0.1239,0.1239,0.1238,0.1238,0,0.0945,0.0965,0.0975,0.1,0.1018,0.1038,0.1063,0.1096,0.1128,0.1151,0.1209,0.1225,0.1262,0.1271,0.1267,0.1314,0.1305,0.1298,0.1274,0.1315,0.1316,0.1321,0.1242,0.1241,0.1241,0.124,0,0,0.0941,0.0974,0.0982,0.0998,0.1035,0.1048,0.109,0.113,0.117,0.1212,0.1261,0.1298,0.1322,0.1331,0.1337,0.1355,0.1396,0.1347,0.1347,0.1348,0.1442,0.135,0.1347,0.1405,0.1406,0.1408,0.1425,0,0.0948,0.0974,0.0992,0.1027,0.1043,0.1079,0.1116,0.1161,0.1206,0.1261,0.1293,0.1344,0.1339,0.1367,0.1388,0.14,0.1414,0.1391,0.1406,0.1406,0.1316,0.1352,0.1412,0.1429,0.1431,0.1432,0.1432,0,0.0948,0.0967,0.0997,0.1042,0.1055,0.1086,0.1154,0.1192,0.1268,0.1308,0.1367,0.1395,0.1442,0.1426,0.1469,0.146,0.1457,0.1455,0.1456,0.1359,0.1324,0.1381,0.1442,0.1441,0.1441,0.144,0.1439,0,0.0927,0.097,0.0994,0.101,0.1065,0.1099,0.114,0.1216,0.1258,0.1348,0.1389,0.1449,0.1486,0.1503,0.1508,0.15,0.1539,0.1523,0.1434,0.1427,0.1485,0.1479,0.1546,0.1546,0.1546,0.1546,0.1546,0,0.0913,0.0938,0.0992,0.1005,0.105,0.1099,0.1163,0.1216,0.1299,0.135,0.1418,0.1457,0.151,0.1536,0.153,0.1499,0.1561,0.1442,0.1429,0.1502,0.1497,0.1489,0.1482,0.1547,0.1547,0.1547,0.1547,0,0.0881,0.0917,0.0948,0.1013,0.1039,0.1076,0.1166,0.1208,0.1298,0.1366,0.1396,0.148,0.1518,0.1544,0.157,0.1516,0.15,0.147,0.1544,0.1535,0.1365,0.136,0.1371,0.1368,0.1366,0.1364,0.1362,0,0.0862,0.0875,0.0945,0.0967,0.1001,0.1065,0.1106,0.1201,0.1245,0.1364,0.1384,0.1458,0.1499,0.1463,0.1498,0.1479,0.1456,0.1429,0.1395,0.1362,0.1349,0.1349,0.1347,0.1358,0.1357,0.1356,0.1356,0,0.0823,0.0857,0.0882,0.0929,0.0974,0.1016,0.1086,0.1108,0.1215,0.1301,0.1343,0.1359,0.1396,0.141,0.1405,0.1387,0.1439,0.1402,0.1407,0.1374,0.1346,0.1335,0.1337,0.1347,0.1348,0.1349,0.1349,0,0.0798,0.0804,0.0842,0.0876,0.0928,0.0951,0.0996,0.1045,0.1098,0.1227,0.1237,0.1315,0.1392,0.1362,0.1359,0.1336,0.1309,0.1249,0.1261,0.1271,0.1228,0.1176,0.1117,0,0,0,0,0,0.0765,0.0762,0.0786,0.0813,0.0861,0.0894,0.0971,0.1019,0.1118,0.1117,0.1176,0.1207,0.1216,0.1255,0.1209,0.1299,0.1305,0.1237,0.124,0.1298,0.1308,0.1264,0,0,0,0,0,0,0.0739,0.0757,0.076,0.0754,0.0765,0.0808,0.0855,0.0923,0.0932,0.1037,0.1053,0.1126,0.1156,0.1232,0.1186,0.1193,0.1166,0.1285,0.1281,0.1292,0.1301,0.1309,0.1268,0,0,0,0,0]},{"header":{"parameterUnit":"m.s-1","parameterCategory":2,"la1":30.2991,"la2":30.254,"lo1":-89.0895,"lo2":-89.0444,"dy":0.0017,"dx":0.0017,"nx":28,"ny":28,"refTime":"2024-09-27T09:00:00:Z","depth":"4","parameterNumber":3,"parameterNumberName":"V-component_of_CURRENTS"},"data":[0,0,0,0,0,0,0,0,0,0,0,0,0,0,0,0,0,0,0,0,0,0,0,0,0,0,0,0,0,0,0,0,0,0,0,0,0,0,0,0,0,0,0,0,0,0,0,0,0,0,0,0,0,0,0,0,0,0,0.0262,0.0263,0,0.0265,0.0265,0.0264,0.0265,0.0265,0.0265,0.0265,0.0252,0.0252,0.0252,0,0,0,0,0,0,0,0,0,0,0,0,0,0.0234,0.0234,0.0262,0.0263,0.0263,0.0265,0.0265,0.0264,0.0265,0.0265,0.0265,0.0265,0.0253,0.0252,0.0252,0,0,0,0,0,0,0,0,0,0,0,0,0,0.0241,0.0235,0.0262,0.0264,0.0264,0.0265,0.0265,0.0264,0.0265,0.0265,0.0265,0.0265,0.0253,0.0252,0.0251,0.0244,0,0,0.0249,0.0249,0,0,0,0,0,0,0,0,0.0241,0.0242,0.0264,0.0264,0.0264,0.0266,0.025,0.0257,0.0265,0.0263,0.0265,0.0266,0.0256,0.0255,0.0254,0.0244,0.0243,0.0249,0.0249,0.0249,0.0249,0,0,0,0,0,0,0,0.024,0.0242,0.0262,0.0264,0.0264,0.0256,0.0258,0.0251,0.0258,0.0264,0.0264,0.0266,0.0256,0.0254,0.0253,0.0243,0.0249,0.0249,0.0248,0.0248,0.0234,0.0234,0,0,0,0,0,0,0.0244,0.0241,0.0262,0.0262,0.0254,0.0257,0.0258,0.0264,0.0258,0.0258,0.0266,0.0266,0.0255,0.0254,0.0253,0.0262,0.0249,0.0248,0.0248,0.0234,0.0234,0.0234,0,0,0,0,0,0,0.0243,0.0246,0.0262,0.0253,0.0254,0.0258,0.0264,0.0264,0.0267,0.026,0.026,0.027,0.0256,0.0254,0.0255,0.026,0.0248,0.0247,0.0234,0.0234,0.0234,0.0268,0,0,0,0,0,0,0.0242,0.0246,0.0251,0.0253,0.0255,0.0267,0.0264,0.0264,0.0269,0.0269,0.0263,0.0262,0.0256,0.0256,0.0254,0.0259,0.0247,0.0234,0.0234,0.0234,0.0267,0.0269,0.0271,0,0,0,0,0,0.0241,0.025,0.0252,0.0254,0.0263,0.0267,0.0267,0.0269,0.0269,0.0272,0.027,0.0262,0.0254,0.0255,0.0253,0.0259,0.0234,0.0234,0.0234,0.0266,0.0268,0.0271,0,0,0,0,0,0,0.0238,0.0251,0.0253,0.0264,0.0268,0.0268,0.0273,0.0272,0.0272,0.0274,0.0265,0.0264,0.0266,0.0256,0.0257,0.0253,0.0241,0.0241,0.0266,0.0269,0.0271,0.0279,0.0246,0,0,0,0,0,0.0241,0.0253,0.0258,0.0267,0.0271,0.0272,0.0274,0.0276,0.0276,0.0277,0.0275,0.0269,0.0263,0.0262,0.0255,0.0255,0.0237,0.0255,0.0257,0.0259,0.0263,0.0238,0.0239,0.0234,0.0234,0.0234,0,0,0.0242,0.0251,0.0257,0.0268,0.0271,0.0283,0.0274,0.0281,0.029,0.0275,0.0287,0.0278,0.0264,0.0266,0.0265,0.0259,0.025,0.0259,0.0261,0.0264,0.0239,0.0239,0.0239,0.0234,0.0234,0.0234,0,0,0.0251,0.0259,0.0272,0.0279,0.0289,0.0291,0.0295,0.03,0.0302,0.0308,0.03,0.0294,0.0289,0.0281,0.0275,0.0283,0.0262,0.028,0.03,0.0276,0.0276,0.0276,0.0254,0.0251,0.0282,0.0282,0.0282,0,0.0251,0.0273,0.0275,0.029,0.0301,0.0298,0.0315,0.0315,0.0319,0.0323,0.0317,0.0308,0.0296,0.0294,0.0298,0.0288,0.0273,0.0294,0.0279,0.0279,0.0278,0.0255,0.0252,0.0283,0.0283,0.0283,0.0283,0,0.0271,0.029,0.0298,0.0321,0.0329,0.0343,0.0348,0.0353,0.0355,0.0357,0.0357,0.0337,0.0333,0.0324,0.0315,0.0307,0.0297,0.0285,0.0275,0.0281,0.0256,0.0252,0.0286,0.0285,0.0285,0.0284,0,0,0.027,0.0306,0.0311,0.0331,0.035,0.0361,0.0374,0.0387,0.0402,0.0393,0.0403,0.0385,0.0376,0.0368,0.035,0.0328,0.0308,0.031,0.0308,0.0292,0.0257,0.0242,0.0236,0.0295,0.0295,0.0295,0.0241,0,0.0286,0.0326,0.0338,0.0376,0.0398,0.0403,0.042,0.0429,0.0432,0.044,0.0413,0.0417,0.0392,0.0392,0.0366,0.0325,0.03,0.0324,0.025,0.0248,0.0237,0.0232,0.0293,0.0238,0.0237,0.0237,0.0236,0,0.0304,0.0331,0.0372,0.0415,0.0425,0.0447,0.0477,0.0492,0.0496,0.0497,0.0489,0.047,0.0443,0.0416,0.0347,0.0365,0.0317,0.0278,0.0275,0.0247,0.0225,0.023,0.023,0.023,0.0231,0.0231,0.0231,0,0.031,0.0356,0.0394,0.0409,0.0452,0.0472,0.0496,0.0513,0.0535,0.0536,0.0545,0.0509,0.0493,0.0428,0.035,0.035,0.0266,0.0253,0.0191,0.0189,0.0205,0.0205,0.0199,0.0199,0.0199,0.0199,0.0199,0,0.0325,0.0356,0.0405,0.0427,0.0477,0.0497,0.0548,0.056,0.0584,0.0613,0.058,0.0581,0.0496,0.0438,0.0361,0.0266,0.0272,0.0193,0.0174,0.022,0.0222,0.0202,0.0203,0.0197,0.0197,0.0198,0.0198,0,0.0326,0.0357,0.0406,0.0461,0.0484,0.0521,0.0589,0.0622,0.0639,0.0669,0.0671,0.0635,0.0561,0.0466,0.0356,0.0285,0.0192,0.0155,0.0215,0.0199,0.0128,0.0132,0.0082,0.0081,0.008,0.008,0.0079,0,0.033,0.0356,0.0432,0.0469,0.0499,0.056,0.0606,0.0647,0.0684,0.07,0.0712,0.0656,0.0614,0.0454,0.0348,0.0196,0.0171,0.0119,0.012,0.0131,0.0116,0.0121,0.0125,0.0078,0.0078,0.0077,0.0077,0,0.0337,0.0367,0.0409,0.0488,0.0547,0.0613,0.0678,0.0707,0.075,0.0759,0.0746,0.0665,0.0579,0.0454,0.0336,0.0225,0.0151,0.011,0.0111,0.0111,0.0125,0.0112,0.0117,0.0074,0.0075,0.0075,0.0075,0,0.0343,0.0373,0.0436,0.0506,0.0578,0.0648,0.0684,0.073,0.0767,0.0779,0.0771,0.068,0.0631,0.0469,0.0359,0.0249,0.0218,0.0175,0.0172,0.0174,0.0213,0.0245,0.0214,0,0,0,0,0,0.0347,0.0387,0.0451,0.0532,0.0604,0.0655,0.0726,0.0757,0.079,0.0785,0.0782,0.0701,0.0542,0.0479,0.0367,0.0332,0.0191,0.0194,0.014,0.0058,0.0061,0.0089,0,0,0,0,0,0,0.0351,0.0408,0.0448,0.0542,0.0603,0.069,0.0739,0.0764,0.0767,0.0775,0.0699,0.0662,0.0514,0.0607,0.0362,0.0329,0.0275,0.0125,0.0122,0.0056,0.0059,0.0062,0.0091,0,0,0,0,0]}]]